Location: Izdebno
(52.6670°N, 16.2170°E)
Time: 04:07:26
(UTC+01:00)

Envisat - Pass Details

Date: 12 October 2024
Orbit: 761 x 763 km, 98.3° (Epoch: 10 November)

Event Time Altitude Azimuth Distance (km) Brightness Sun altitude
Rises 05:42:12 0° 7° (N) 3,241 6.4 -15.0°
Reaches altitude 10° 05:44:53 10° 354° (N) 2,310 5.5 -14.6°
Maximum altitude 05:48:52 24° 303° (WNW) 1,555 4.2 -14.0°
Enters shadow 05:50:35 20° 274° (W) 1,718 4.2 -13.7°
